Regional Weather Roundup
Issued by NWS

Home | Current Version | Previous Version | Graphics & Text | Print | Product List | Glossary On
Versions: 1 2 3 4 5 6 7 8 9 10 11 12 13 14 15 16 17 18 19 20 21 22 23 24 25 26 27 28 29 30 31 32 33 34 35 36 37 38 39 40 41 42 43 44 45 46 47 48 49 50
000
ASUS43 KIND 290159
RWRIN

WEATHER ROUNDUP FOR INDIANA
NATIONAL WEATHER SERVICE INDIANAPOLIS IN
1000 PM EDT SAT MAR 28 2015

NOTE: "FAIR" INDICATES FEW OR NO CLOUDS BELOW 12,000 FEET WITH NO
SIGNIFICANT WEATHER AND/OR OBSTRUCTIONS TO VISIBILITY.

* - STATION DOES NOT REPORT WEATHER SUCH AS PRECIPITATION OR FOG.

+ - STATION NOT QUALITY CONTROLLED BY THE NATIONAL WEATHER SERVICE.
    USE DATA WITH CAUTION...ESPECIALLY DEWPOINT AND RELATIVE
    HUMIDITY OBSERVATIONS.

INZ001>003-010>013-019-020-290300-
NORTHWEST INDIANA

CITY           SKY/WX    TMP DP  RH WIND       PRES   REMARKS
GARY /AIRPORT/ CLEAR     28  10  47 SE6       30.32R WCI  22
KNOX *+          N/A     25   7  46 NE3       30.31R
LA PORTE +     CLEAR     24  15  69 CALM      30.32R
MONTICELLO +   CLEAR     28  15  57 CALM      30.31R

$$

LMZ046-743>745-290300-
SOUTHERN LAKE MICHIGAN

STATION/POSITION TIME  TEMP WIND        PRES
                       AIR  DIR/SP/G
                 (UTC) (F)  (DEG/KT/KT) (MB)
BURNS HARBOR     0100   26   90/  6/  7 1026.8S
MICHIGAN CITY    0100   26   30/  3/  4   N/A

$$

INZ004-005-014>016-021>024-290300-
NORTH CENTRAL INDIANA

CITY           SKY/WX    TMP DP  RH WIND       PRES   REMARKS
GOSHEN         CLEAR     27  16  63 NW6       30.30R WCI  20
SOUTH BEND     CLEAR     24  12  60 CALM      30.32R
WARSAW +       CLEAR     27  12  54 CALM      30.30S

$$

INZ006>009-017-018-025>027-290300-
NORTHEAST INDIANA

CITY           SKY/WX    TMP DP  RH WIND       PRES   REMARKS
ANGOLA *+      CLEAR     27  12  54 CALM      30.29R
AUBURN +       CLEAR     28  12  50 CALM      30.31R
FORT WAYNE     CLEAR     28  18  66 SW6       30.32R WCI  22

$$

INZ028-029-035-036-043>045-051>053-290300-
WEST CENTRAL INDIANA

CITY           SKY/WX    TMP DP  RH WIND       PRES   REMARKS
CRAWFORDSVL +  CLEAR     26  15  65 E3        30.31S
GREENCASTLE +  CLEAR     30  12  47 NE3       30.32R
LAFAYETTE      CLEAR     27  12  53 E6        30.32R WCI  20
TERRE HAUTE    FAIR      31  18  58 SE3       30.32R

$$

INZ030>032-037>040-046>048-054>057-064-065-290300-
CENTRAL INDIANA

CITY           SKY/WX    TMP DP  RH WIND       PRES   REMARKS
CP ATTERBURY + CLEAR     30  18  59 CALM      30.33R
COLUMBUS       CLEAR     27  19  74 E6        30.33R WCI  20
FRANKFORT +    CLEAR     28  21  75 E5        30.33R WCI  22
GREENWOOD *+   CLEAR     32  10  40 CALM      30.32R
INDIANAPOLIS   CLEAR     32  13  45 E5        30.31R WCI  27
-EAGLE CREEK   CLEAR     31  15  52 CALM      30.32R
KOKOMO *+        N/A     28  19  69 S5        30.32R WCI  23
MT COMFORT *+  CLEAR     27  10  50 NE5       30.32S WCI  21
SHELBYVILLE    CLEAR     30  20  66 E5        30.32R WCI  25

$$

INZ033-034-041-042-049-050-058-059-290300-
EAST CENTRAL INDIANA

CITY           SKY/WX    TMP DP  RH WIND       PRES   REMARKS
MUNCIE         CLEAR     30  14  51 CALM      30.32R

$$

INZ060-061-067>069-081>083-085>088-290300-
SOUTHWEST INDIANA

CITY           SKY/WX    TMP DP  RH WIND       PRES   REMARKS
EVANSVILLE     CLEAR     36  21  54 CALM      30.34R
HUNTINGBURG *+ CLEAR     34  16  47 N6        30.33R WCI  29

$$

INZ062-063-066-070>080-084-089>092-290300-
SOUTH CENTRAL AND SOUTHEAST INDIANA

CITY           SKY/WX    TMP DP  RH WIND       PRES   REMARKS
BLOOMINGTON    CLEAR     28  19  69 CALM      30.31R
SEYMOUR +      CLEAR     30  19  64 E5        30.33R WCI  25

$$



USA.gov is the U.S. government's official web portal to all federal, state and local government web resources and services.